Regional Weather Roundup
Issued by NWS

Home | Current Version | Previous Version | Graphics & Text | Print | Product List | Glossary On
Versions: 1 2 3 4 5 6 7 8 9 10 11 12 13 14 15 16 17 18 19 20 21 22 23 24 25 26 27 28
000
ASUS45 KCYS 242110
RWRWY

WYOMING REGIONAL WEATHER ROUNDUP
NATIONAL WEATHER SERVICE CHEYENNE WY
300 PM MDT WED MAY 24 2017

NOTE:  "FAIR" INDICATES FEW OR NO CLOUDS BELOW 12,000 FEET
WITH NO SIGNIFICANT WEATHER AND/OR OBSTRUCTIONS TO VISIBILITY.

WYZ001-242200-
YELLOWSTONE NATIONAL PARK

CITY           SKY/WX    TMP DP  RH WIND       PRES   REMARKS
LK YELLOWSTONE   N/A     61  29  29 W10G25    29.67S
W YELLOWSTONE  NOT AVBL

$$
WYZ002>013-054>058-071-098>099-242200-
NORTHERN WYOMING

CITY           SKY/WX    TMP DP  RH WIND       PRES   REMARKS
JACKSON        MOSUNNY   70  30  23 SW12G35   29.65F
CODY           FAIR      80  28  15 W16G22    29.42F
GREYBULL       FAIR      87  31  13 W12G25    29.32F
WORLAND        FAIR      84  37  18 SW31G44   29.38F
SHERIDAN       FAIR      84  42  22 W8        29.33F
BUFFALO        FAIR      81  34  18 W12       29.43F
GILLETTE       FAIR      80  46  30 S13       29.40F
HULETT         FAIR      79  45  29 S12G20    29.44F
NEWCASTLE      FAIR      73  41  31 SE15G21   29.49F

$$
WYZ014>020-022>026-101>103-242200-
CENTRAL WYOMING

CITY           SKY/WX    TMP DP  RH WIND       PRES   REMARKS
BIG PINEY      CLOUDY    66  35  31 W18G28    29.76F
PINEDALE       MOCLDY    68  32  26 W30G37    29.75F
DUBOIS         FAIR      66  27  22 W31G44    29.63
LANDER         FAIR      77  35  21 W21G32    29.54F
RIVERTON       FAIR      78  34  20 W28G43    29.53F
CASPER         FAIR      78  40  25 W25G38    29.53F
DOUGLAS        FAIR      81  39  22 W20G28    29.52F

$$
WYZ021-027>030-104>119-242200-
SOUTHERN WYOMING

CITY           SKY/WX    TMP DP  RH WIND       PRES   REMARKS
EVANSTON       FAIR      72  35  25 W29G39    29.83F
KEMMERER         N/A     68  32  26 W39G53    29.81F
ROCK SPRINGS   PTSUNNY   72  30  21 W30G41    29.76F
DIXON            N/A     76  32  20 SW20G30   29.79F
RAWLINS        FAIR      76  29  17 W25G51    29.71F
SARATOGA       CLOUDY    70  32  24 MISG      29.77F
LARAMIE        PTSUNNY   70  34  26 W24G36    29.75F
CHEYENNE       FAIR      77  33  20 W33G40    29.69F
TORRINGTON     FAIR      81  44  27 SE10      29.50F
PINE BLUFFS    FAIR      79  37  22 SW18G25   29.62F

$$




USA.gov is the U.S. government's official web portal to all federal, state and local government web resources and services.